Regional Weather Roundup
Issued by NWS

Home | Current Version | Previous Version | Graphics & Text | Print | Product List | Glossary On
Versions: 1 2 3 4 5 6 7 8 9 10 11 12 13 14 15 16 17 18 19 20 21 22 23 24 25 26 27 28 29 30 31 32 33 34 35 36 37 38 39 40 41 42 43 44 45 46 47 48 49 50
000
ASUS43 KMKX 160011
RWRWI

WISCONSIN REGIONAL WEATHER ROUNDUP
NATIONAL WEATHER SERVICE MILWAUKEE/SULLIVAN WI
700 PM CDT TUE APR 15 2014

NOTE: "FAIR" INDICATES FEW OR NO CLOUDS BELOW 12,000 FEET WITH NO
SIGNIFICANT WEATHER AND/OR OBSTRUCTIONS TO VISIBILITY.

WIZ001-002-006>008-014>016-023>028-160100-
NORTHWEST WISCONSIN

CITY           SKY/WX    TMP DP  RH WIND       PRES   REMARKS
SUPERIOR ARPT  CLEAR     32   3  29 SW5       30.06S WCI  27
6HR MIN TEMP:  28; 6HR MAX TEMP:  34;

ASHLAND        CLEAR     30   6  36 N7        30.07S WCI  23
6HR MIN TEMP:  25; 6HR MAX TEMP:  31;

HAYWARD        CLEAR     31  -1  25 VRB3      30.04S
6HR MIN TEMP:  27; 6HR MAX TEMP:  33;

SIREN          CLEAR     32   1  26 CALM      30.05S
6HR MIN TEMP:  29; 6HR MAX TEMP:  34;

RICE LAKE      NOT AVBL
LADYSMITH      PTCLDY    32   6  33 SW8       30.06S WCI  25
6HR MIN TEMP:  28; 6HR MAX TEMP:  34;

EAU CLAIRE     CLEAR     35   5  28 SW8       30.07R WCI  29
6HR MIN TEMP:  31; 6HR MAX TEMP:  37;

MENOMONIE      CLEAR     36   5  27 S7        30.06S WCI  30
6HR MIN TEMP:  31; 6HR MAX TEMP:  37;

NEW RICHMOND   PTCLDY    34   1  25 SW5       30.05F WCI  30
6HR MIN TEMP:  29; 6HR MAX TEMP:  35;

OSCEOLA        CLEAR     35   3  26 SW7       30.08S WCI  29
6HR MIN TEMP:  31; 6HR MAX TEMP:  37;

$$

WIZ003>005-009-010-017-018-160100-
NORTH CENTRAL WISCONSIN

CITY           SKY/WX    TMP DP  RH WIND       PRES   REMARKS
WOODRUFF       CLEAR     32   4  30 NW5       30.02R WCI  27
6HR MIN TEMP:  27; 6HR MAX TEMP:  37;

RHINELANDER    CLEAR     26   4  38 W9        30.03R WCI  17
6HR MIN TEMP:  23; 6HR MAX TEMP:  28;

EAGLE RIVER    CLEAR     27   0  30 W5        30.02R WCI  22
6HR MIN TEMP:  23; 6HR MAX TEMP:  29;

LAND O LAKES   CLEAR     27   1  33 CALM      30.03R
6HR MIN TEMP:  23; 6HR MAX TEMP:  29;

PHILLIPS       CLEAR     29   2  31 CALM      30.02S
6HR MIN TEMP:  25; 6HR MAX TEMP:  32;

TOMAHAWK       CLEAR     29   3  32 CALM      30.03S
6HR MIN TEMP:  26; 6HR MAX TEMP:  30;

MEDFORD        PTCLDY    30  12  47 W6        30.04R WCI  24
6HR MIN TEMP:  25; 6HR MAX TEMP:  30;

MERRILL        PTCLDY    30   9  40 CALM      30.05S
6HR MIN TEMP:  27; 6HR MAX TEMP:  32;

$$

WIZ029-030-035-036-043>047-160100-
CENTRAL WISCONSIN

CITY           SKY/WX    TMP DP  RH WIND       PRES   REMARKS
WAUSAU         CLEAR     28   9  44 W8        30.06R WCI  20
6HR MIN TEMP:  26; 6HR MAX TEMP:  30; 6HR PCP: TRACE;

MOSINEE        PTCLDY    27  12  54 W6        30.08R WCI  20
MARSHFIELD     CLEAR     31   9  39 W6        30.06R WCI  25
6HR MIN TEMP:  28; 6HR MAX TEMP:  32;

STEVENS POINT  CLEAR     28   9  44 NW5       30.09S WCI  23
6HR MIN TEMP:  26; 6HR MAX TEMP:  29;

WAUPACA        PTCLDY    32  16  51 W5        30.12R WCI  27
WAUTOMA        CLEAR     32  17  54 W6        30.12S WCI  26
6HR MIN TEMP:  29; 6HR MAX TEMP:  34; 6HR PCP:  0.01;

WISC RAPIDS    MOCLDY    31  11  43 SW7       30.10R WCI  24
6HR MIN TEMP:  28; 6HR MAX TEMP:  32; 6HR PCP: TRACE;

CAMP DOUGLAS   PTCLDY    32  14  47 SW6       30.10R WCI  26
$$

WIZ011>013-019>022-031-037>040-048>050-160100-
NORTHEAST WISCONSIN

CITY           SKY/WX    TMP DP  RH WIND       PRES   REMARKS
ANTIGO         PTCLDY    24  10  55 SW8       30.05R WCI  16
6HR MIN TEMP:  24; 6HR MAX TEMP:  29;

STURGEON BAY   MOCLDY    28  14  54 W8G16     30.10R WCI  20
6HR MIN TEMP:  27; 6HR MAX TEMP:  30;

GREEN BAY      CLOUDY    31  15  52 W10       30.12R WCI  22
6HR MIN TEMP:  28; 6HR MAX TEMP:  33; 6HR PCP: TRACE;

MANITOWOC      CLOUDY    31  17  56 W10       30.13R WCI  22
6HR MIN TEMP:  30; 6HR MAX TEMP:  34; 6HR PCP: TRACE;

APPLETON       MOCLDY    30  14  51 W12       30.11R WCI  21
CLINTONVILLE   CLEAR     32  12  43 W6        30.10S WCI  26
OSHKOSH        MOCLDY    31  15  52 W6        30.11S WCI  25
6HR MIN TEMP:  29; 6HR MAX TEMP:  33; 6HR PCP: TRACE;

$$

WIZ032>034-041-042-053>061-160100-
SOUTHWEST WISCONSIN

CITY           SKY/WX    TMP DP  RH WIND       PRES   REMARKS
LA CROSSE      CLEAR     37  12  35 CALM      30.09S
6HR MIN TEMP:  33; 6HR MAX TEMP:  39;

SPARTA         CLEAR     35   8  32 W7        30.10S WCI  29
6HR MIN TEMP:  31; 6HR MAX TEMP:  36; 6HR PCP:  0.03;

VIROQUA        FAIR      33  16  48 W6        30.07S WCI  28
6HR MIN TEMP:  29; 6HR MAX TEMP:  34;

BOSCOBEL       CLEAR     38  12  34 SW6       30.12R WCI  33
6HR MIN TEMP:  34; 6HR MAX TEMP:  40; 6HR PCP: TRACE;

PRAIRIE DU CHI CLEAR     37  13  36 W7        30.11S WCI  32
6HR MIN TEMP:  33; 6HR MAX TEMP:  38;

PLATTEVILLE    FAIR      36  18  48 SW8       30.12R WCI  29
6HR MIN TEMP:  32; 6HR MAX TEMP:  37;

$$

WIZ056-057-062-063-064-067-068-160100-
SOUTH CENTRAL WISCONSIN

CITY           SKY/WX    TMP DP  RH WIND       PRES   REMARKS
BARABOO/DELLS  CLEAR     33  14  46 W3        30.10S
6HR MIN TEMP:  29; 6HR MAX TEMP:  34;

LONE ROCK      CLEAR     37  13  37 W6        30.11S WCI  32
6HR MIN TEMP:  32; 6HR MAX TEMP:  38;

WATERTOWN      CLOUDY    32  16  50 NW6       30.11S WCI  27
6HR MIN TEMP:  31; 6HR MAX TEMP:  35;

MADISON        PTCLDY    35  13  40 VRB3      30.12R
6HR MIN TEMP:  32; 6HR MAX TEMP:  37;

MIDDLETON      MOCLDY    36  13  39 W5        30.11S WCI  32
6HR MIN TEMP:  33; 6HR MAX TEMP:  38;

MONROE         PTCLDY    35  13  39 W8        30.10S WCI  29
6HR MIN TEMP:  32; 6HR MAX TEMP:  38;

JANESVILLE     PTCLDY    37  12  35 NW6       30.12R WCI  33
$$

WIZ051-052-058>065-066-070>072-160100-
SOUTHEAST WISCONSIN

CITY           SKY/WX    TMP DP  RH WIND       PRES   REMARKS
MILWAUKEE      MOCLDY    31  19  61 SE12      30.15R WCI  22
6HR MIN TEMP:  31; 6HR MAX TEMP:  35;

WAUKESHA       MOCLDY    32  12  43 NW6       30.13R WCI  26
MILWAUKEE/TIMM MOCLDY    34  10  37 NW7       30.14R WCI  28
RACINE         PTCLDY    30  19  63 S12       30.16S WCI  20
6HR MIN TEMP:  30; 6HR MAX TEMP:  32;

BURLINGTON     PTCLDY    32  14  47 SW7       30.13R WCI  26
6HR MIN TEMP:  30; 6HR MAX TEMP:  36;

KENOSHA        MOCLDY    31  19  61 SE14      30.14R WCI  21
6HR MIN TEMP:  31; 6HR MAX TEMP:  35;

FOND DU LAC    PTCLDY    32  16  51 NW7       30.12R WCI  26
6HR MIN TEMP:  30; 6HR MAX TEMP:  34;

SHEBOYGAN      FLURRIES  31  18  58 W6        30.13R WCI  25
6HR MIN TEMP:  29; 6HR MAX TEMP:  33; 6HR PCP: TRACE;

WEST BEND      MOCLDY    32  10  40 NW5       30.12S WCI  27
JUNEAU         PTCLDY    32  10  39 NW5       30.12S WCI  27
6HR MIN TEMP:  30; 6HR MAX TEMP:  33;

$$

LSZ147-162-160100-
LAKE SUPERIOR

STATION/POSITION TIME  TEMP    WIND        PRES    WAVE
                       AIR SEA DIR/SP/G            HT/PER
                 (UTC) (F)     (DEG/KT/KT) (MB)    (FT/S)
DEVILS ISLAND    2300   28     220/ 10/ 12 1019.2S
PORT WING        2340   31     240/  7/  9 1018.3F
SAXON HARBOR     2340           60/  3/  3 1018.6S
$$

LMZ867-665-643>646-160100-
LAKE MICHIGAN

STATION/POSITION TIME  TEMP    WIND        PRES    WAVE
                       AIR SEA DIR/SP/G            HT/PER
                 (UTC) (F)     (DEG/KT/KT) (MB)    (FT/S)
NORTHPORT PIER   2300   28     200/  6/ 12 1019.0R
SISTER BAY       2323             CALM       N/A
KEWAUNEE LAKESHO 2300   32     260/ 11/ 15 1020.0R
SHEBOYGAN LAKESH 0000   33     270/ 10/ 12 1021.5R
PORT WASHINGTON  2300   32     170/ 11/ 13 1021.0R
MILWAUKEE LAKESH 2300   30     140/ 15/ 17   N/A
KENOSHA   LAKESH 0000   31     160/ 17/ 19   N/A
$$

TC  - TEMPERATURE IN CELSIUS
VSB - VISIBILITY IN STATUTE MILES
WCI - WIND CHILL INDEX
HX  - HEAT INDEX




USA.gov is the U.S. government's official web portal to all federal, state and local government web resources and services.